Wind_Speed
117 117 117 117 117 117 118 118 118 117 117 117 116 115 114 113 112 111 110 109 108 107 107 106 106 106 106 106 107 107 107 107 107 107 108 108 109 109 109 109 109 109 108 108 107 107 106 105 105 104 103 103 102 101 100 99 97 96 95 94 93 92 91 90 90 89 88 87 86 85 84 83 82 81 79 78 77 75 74 73 72 71 71 71 71 71
118 118 118 118 119 119 119 119 119 118 118 117 116 115 114 113 112 111 110 109 108 108 107 107 107 107 107 107 107 107 107 108 108 108 109 109 109 110 110 110 109 109 108 107 107 106 105 105 104 103 102 102 101 100 99 97 96 95 94 93 92 91 90 89 88 88 87 86 85 83 82 81 80 78 77 75 74 73 72 71 70 69 69 69 69 69
119 119 120 120 120 120 120 120 120 119 119 118 117 116 114 113 112 111 110 110 109 108 108 108 108 108 108 108 108 108 108 108 109 109 109 110 110 110 110 109 109 108 108 107 106 105 105 104 103 102 101 100 100 99 97 96 95 94 93 92 91 90 89 88 87 86 85 84 83 81 80 79 77 76 74 73 72 71 70 69 68 68 67 67 67 67
120 120 120 121 121 121 121 121 121 120 119 118 117 116 115 113 112 111 110 110 109 109 109 108 108 108 108 108 108 109 109 109 109 110 110 110 110 110 109 109 108 108 107 106 105 105 104 103 102 101 100 99 98 97 96 95 94 93 92 91 90 89 87 86 85 84 83 82 81 79 78 77 75 74 73 71 70 69 68 68 67 67 66 66 65 65
121 121 121 121 122 122 122 122 121 121 120 119 117 116 115 113 112 111 111 110 109 109 109 109 109 109 109 109 109 109 109 110 110 110 110 110 110 109 109 108 108 107 107 106 105 104 103 102 101 100 99 98 97 96 95 94 93 92 91 90 88 87 86 84 83 82 81 79 78 77 76 75 73 72 71 70 69 68 67 67 66 66 65 65 64 63
122 122 122 122 122 123 123 122 122 121 120 119 117 116 115 113 112 111 111 110 110 110 109 109 109 109 109 110 110 110 110 111 111 111 110 110 110 109 108 108 107 107 106 105 104 103 102 101 100 99 98 97 96 95 95 94 93 91 90 88 87 85 84 82 81 79 78 77 75 74 73 72 71 70 69 68 67 67 66 66 65 65 64 63 63 62
123 123 123 123 123 123 123 123 122 121 119 118 117 116 115 113 112 112 111 110 110 110 110 110 110 110 110 111 111 111 111 111 111 111 111 110 109 109 108 108 107 107 106 105 104 103 102 101 100 99 98 97 96 95 94 93 92 90 89 87 85 84 82 80 78 76 75 73 72 71 70 69 68 67 66 66 65 65 65 65 64 64 63 62 61 60
124 124 124 124 124 124 123 123 122 121 120 118 117 116 115 114 112 112 111 110 110 110 110 110 111 111 111 111 112 112 112 112 112 111 111 110 110 109 108 108 107 107 106 105 104 103 102 101 100 98 97 96 95 94 93 91 90 89 87 86 84 82 80 78 76 74 72 71 69 68 67 66 65 64 64 64 64 64 63 63 63 62 62 61 60 59
124 124 124 124 124 124 124 123 122 121 120 118 117 115 114 113 112 112 111 111 110 110 111 111 112 112 113 113 113 113 113 113 112 112 111 110 110 109 108 108 107 106 105 105 104 103 102 100 99 98 96 95 94 92 91 90 88 87 85 84 82 80 78 77 75 73 71 69 67 66 64 63 62 62 62 61 62 62 62 61 61 61 60 59 58 57
124 125 125 125 124 124 123 123 122 121 120 118 117 115 114 113 112 112 112 111 111 111 111 112 112 113 114 114 114 114 114 113 113 112 111 110 110 109 108 107 106 105 104 104 103 102 101 99 98 96 95 93 92 90 89 87 86 84 83 82 80 79 77 75 74 72 70 68 66 64 63 62 61 60 60 60 59 59 59 59 59 58 58 57 56 55
125 125 125 125 125 124 124 123 122 121 120 118 117 116 114 113 112 112 113 113 112 112 112 113 113 114 115 115 115 114 114 113 112 111 110 109 109 108 107 106 105 104 103 102 101 100 99 97 96 94 93 91 89 88 86 85 83 82 81 79 78 77 75 74 72 71 69 67 65 64 62 61 59 59 58 58 57 57 57 57 56 56 56 55 54 54
126 126 126 126 125 125 124 123 122 121 119 118 117 116 115 114 113 113 113 113 113 113 114 114 114 115 115 115 115 114 113 112 111 110 109 108 107 106 105 104 103 102 101 100 99 97 96 95 93 91 90 88 86 85 83 82 81 80 78 77 76 74 73 72 70 69 68 66 64 63 61 60 58 57 56 56 55 55 54 54 54 54 53 53 52 52
127 126 126 126 126 125 124 123 122 121 119 118 117 116 116 115 114 114 114 114 114 114 114 115 115 115 115 114 114 113 111 110 109 108 108 107 106 105 104 102 101 100 99 97 96 95 93 91 90 88 86 85 83 82 80 79 78 77 76 74 73 72 71 70 68 67 66 64 63 61 60 58 57 56 55 54 53 53 52 52 52 51 51 51 50 50
127 127 127 126 126 125 124 122 121 120 119 118 117 116 115 115 115 114 114 114 114 114 114 114 115 115 114 113 112 111 110 108 107 107 106 105 104 103 101 100 99 97 96 95 93 91 89 88 86 85 83 81 80 79 78 76 75 74 73 71 70 69 68 67 66 65 63 62 61 59 58 57 55 54 53 52 52 51 51 50 50 49 49 48 48 47
128 128 127 127 126 125 123 122 121 119 118 117 116 116 115 115 115 114 114 115 115 114 114 114 114 114 113 111 110 109 108 107 106 105 104 103 102 100 99 98 96 95 93 92 90 88 86 84 83 81 80 79 78 76 75 74 72 71 70 69 68 66 65 64 63 62 61 60 58 57 56 55 54 52 52 51 50 49 48 48 47 47 46 46 45 45
128 128 127 127 126 124 123 122 120 119 118 117 116 115 115 115 115 115 114 114 114 114 114 114 113 112 111 109 108 106 106 105 104 103 102 101 99 98 96 95 93 92 90 88 87 85 83 81 80 79 77 76 75 74 73 71 70 68 67 66 65 64 62 61 60 59 58 57 56 55 54 52 51 50 49 49 48 47 46 46 45 44 44 43 43 43
129 128 127 126 125 124 123 121 120 118 117 116 115 115 114 114 114 114 114 114 114 114 113 112 111 110 109 108 106 104 103 103 102 101 100 99 97 95 93 92 90 89 87 85 84 82 80 79 77 76 75 74 73 71 70 69 67 66 65 63 62 61 60 58 57 56 55 54 53 52 51 50 49 48 47 46 46 45 44 43 43 42 42 41 41 41
129 128 127 126 125 124 122 121 119 118 117 116 115 115 114 114 114 114 114 114 114 113 112 111 109 108 107 106 105 103 101 101 100 99 97 96 94 92 90 88 87 86 84 82 80 79 77 76 75 74 73 71 70 69 67 66 65 63 62 61 59 58 57 56 55 54 53 52 51 50 49 48 47 46 45 44 44 43 42 41 41 40 40 39 39 39
129 128 127 125 124 123 121 120 118 117 116 115 115 115 114 114 114 114 114 113 113 112 111 110 108 107 105 104 103 101 99 98 97 96 95 93 91 89 87 85 84 83 81 80 78 76 75 74 73 71 70 69 67 66 65 63 62 61 59 58 57 56 54 53 52 51 50 49 48 48 47 46 45 44 43 42 42 41 40 40 39 39 38 38 38 37
129 128 126 125 123 122 121 119 118 116 115 115 114 114 114 114 114 114 114 113 112 111 109 108 107 105 104 102 101 99 98 96 95 94 92 90 88 86 84 83 81 80 79 77 75 74 72 71 70 69 67 66 65 63 62 61 59 58 57 56 54 53 52 51 50 49 48 47 46 45 45 44 43 42 42 41 40 39 39 38 38 37 37 37 36 36
128 127 125 124 122 121 120 118 117 116 115 114 114 114 114 114 114 114 113 112 111 109 108 107 106 104 103 101 100 98 96 94 92 91 89 87 85 83 81 80 79 77 76 74 73 71 70 69 67 66 64 63 62 61 59 58 57 56 54 53 52 51 50 49 48 47 46 45 44 44 43 42 41 41 40 39 39 38 37 37 36 36 35 35 35 34
127 126 125 123 122 120 119 118 117 116 115 115 114 114 115 114 114 113 112 111 110 108 107 106 104 103 101 99 98 95 93 91 90 88 86 84 82 80 79 77 76 75 73 71 70 68 67 66 64 63 62 60 59 58 57 56 54 53 52 51 50 49 48 47 46 45 44 43 43 42 41 41 40 39 38 38 37 36 36 35 34 34 34 33 33 33
126 125 124 122 121 119 118 117 116 116 115 115 115 114 114 114 113 113 111 110 108 107 106 104 103 101 99 97 95 93 91 89 86 85 83 82 80 78 76 75 73 72 70 69 67 66 65 63 62 60 59 58 57 55 54 53 52 51 50 49 48 47 46 45 44 43 42 42 41 40 40 39 38 38 37 36 35 35 34 33 33 32 32 32 31 31
126 124 123 122 120 119 118 117 116 116 115 115 115 114 114 113 112 111 109 108 106 105 104 103 101 99 97 95 93 91 88 86 84 82 81 79 77 75 74 72 71 69 68 66 65 64 62 61 59 58 57 55 54 53 52 51 50 49 48 47 46 45 44 43 42 41 41 40 39 39 38 37 37 36 35 34 34 33 32 31 31 30 30 30 29 29
125 123 122 121 119 118 117 116 116 115 115 115 115 114 114 113 111 110 108 106 105 104 102 101 100 98 96 93 91 89 86 84 82 80 79 77 75 73 72 70 69 67 65 64 63 61 60 59 57 56 54 53 52 51 50 49 48 47 46 45 44 43 42 42 41 40 39 39 38 37 36 36 35 34 33 32 32 31 30 30 29 28 28 28 27 27
124 122 121 119 118 117 117 116 116 116 115 115 114 114 113 112 110 108 107 105 104 103 101 100 98 96 94 91 89 87 84 82 80 79 77 75 73 71 70 68 67 65 63 62 61 59 58 57 56 54 52 51 50 49 48 47 46 45 44 43 42 41 41 40 39 38 38 37 36 35 34 34 33 32 31 30 30 29 28 28 27 27 26 26 25 25
123 121 120 119 118 117 116 116 116 116 115 115 114 113 111 110 109 107 106 104 103 101 100 98 96 94 91 89 86 84 82 80 78 77 75 73 71 69 68 66 65 63 61 60 59 58 57 55 54 52 51 49 48 47 46 45 44 43 42 41 41 40 39 38 37 36 36 35 34 33 33 32 31 30 29 29 28 27 27 26 26 25 25 24 24 24
122 121 119 118 117 117 117 116 116 116 115 114 113 112 110 108 107 106 105 103 101 100 98 95 93 91 89 86 84 82 80 78 76 74 72 70 69 67 66 64 63 61 59 58 57 56 55 53 52 50 49 47 46 45 44 43 43 42 41 40 39 38 37 36 35 34 34 33 32 32 31 30 30 29 28 27 27 26 26 25 25 24 24 23 23 22
121 120 119 118 117 117 117 116 116 115 114 113 112 110 108 107 106 104 103 101 99 97 95 93 90 88 85 83 81 79 77 76 74 72 70 68 66 65 63 62 61 59 57 56 55 53 52 51 50 49 47 46 44 43 43 42 41 40 39 38 37 36 36 34 33 33 32 31 31 30 30 29 28 28 27 26 26 25 25 24 24 24 23 23 22 22
120 119 118 117 117 116 116 116 115 114 113 112 110 108 107 105 104 102 100 99 97 94 92 89 87 84 82 80 79 77 75 73 71 70 68 66 64 63 61 60 59 58 56 54 53 51 50 49 48 47 45 44 43 42 41 40 39 39 38 37 36 35 34 33 32 31 30 30 29 29 28 28 28 27 27 26 25 25 24 24 23 23 23 22 22 22
119 118 117 117 116 116 115 115 114 113 112 110 108 106 105 103 102 100 98 96 94 91 89 86 84 81 79 77 76 74 73 71 69 67 65 64 62 61 59 58 57 56 55 53 51 50 48 47 46 45 44 42 41 40 39 38 38 37 36 36 35 34 33 32 31 30 30 29 28 28 28 27 27 26 26 25 25 24 24 23 23 22 22 22 22 21
117 116 116 116 115 115 114 114 113 111 110 108 106 105 103 102 100 98 96 93 91 88 85 83 81 79 76 75 73 71 70 68 67 65 63 62 60 59 58 56 55 54 53 51 50 48 47 45 44 43 42 41 40 39 38 37 36 35 35 34 34 33 32 32 31 30 29 29 28 27 27 26 26 26 25 25 24 24 23 23 22 22 21 21 21 21
116 115 115 114 114 114 113 112 111 109 108 106 105 103 102 100 98 96 93 90 87 85 82 80 78 76 74 72 70 69 67 66 64 63 61 60 58 57 56 54 53 52 51 50 48 47 45 44 43 42 41 40 39 37 36 35 35 34 33 33 32 32 32 31 31 30 29 28 28 27 26 26 25 25 25 24 24 23 22 22 21 21 20 20 20 19
115 114 114 114 113 113 112 111 109 108 106 105 103 102 100 98 96 93 90 88 85 82 80 78 76 74 72 70 68 66 65 63 62 61 59 58 57 55 54 53 51 50 49 48 46 45 44 43 42 41 40 39 38 37 36 35 34 33 33 32 32 31 31 30 30 30 29 28 28 27 26 25 25 24 23 23 22 22 21 20 20 19 19 18 18 18
114 113 113 113 112 112 111 109 108 106 105 103 102 100 98 96 93 90 87 85 82 80 78 76 74 72 70 68 66 65 63 62 60 59 58 56 55 54 52 51 50 48 47 46 45 44 43 42 41 40 39 38 37 36 35 34 34 33 32 32 31 31 30 30 29 29 28 28 27 26 25 24 24 23 22 21 21 20 19 19 18 18 18 17 17 17
113 113 113 112 112 111 109 108 106 105 104 102 101 99 96 94 91 88 85 82 80 77 75 73 72 70 68 66 64 63 62 60 59 58 56 55 54 52 51 49 48 46 45 44 43 42 41 40 40 39 38 37 37 36 35 34 34 33 32 32 31 30 30 29 28 28 27 27 26 25 25 24 23 22 21 20 19 19 18 18 17 17 17 16 16 16
113 113 112 111 111 109 108 107 105 104 103 101 99 97 94 91 88 85 82 79 77 75 73 71 70 68 66 64 63 61 60 59 58 56 55 54 52 51 49 48 47 45 44 43 42 41 40 39 38 38 37 36 36 35 35 34 34 33 32 32 31 30 29 28 27 27 26 25 25 24 23 22 22 21 20 19 18 17 17 17 16 16 16 16 16 15
112 112 112 111 109 108 107 105 104 103 101 99 97 94 91 88 85 82 80 77 75 73 71 69 68 66 64 63 61 60 59 58 56 55 54 52 51 50 48 47 46 45 43 42 41 40 39 38 38 37 36 36 35 35 34 34 33 33 32 31 30 30 29 28 27 26 25 24 23 23 22 21 21 20 19 18 18 17 16 16 16 16 15 15 15 15
112 111 111 109 108 107 105 104 103 101 99 97 94 91 88 85 82 80 77 75 73 71 69 67 66 64 63 61 60 58 57 56 55 54 52 51 50 48 47 46 45 44 43 42 41 40 39 38 37 36 36 35 35 34 34 33 32 32 31 30 30 29 28 27 26 25 24 23 22 22 21 21 20 20 19 18 18 17 16 16 15 15 15 15 15 14
111 110 109 108 107 105 104 102 101 99 97 95 92 88 85 82 79 77 75 73 71 69 67 65 64 62 61 60 58 57 56 55 53 52 51 50 48 47 46 45 44 43 42 41 40 39 38 38 37 36 35 35 34 33 33 32 32 31 30 29 29 28 27 26 25 24 23 22 22 21 21 20 19 19 18 18 17 17 16 15 15 15 14 14 14 14
110 109 108 106 105 103 102 101 99 97 95 92 89 85 82 80 77 75 73 71 69 67 65 64 62 61 60 58 57 56 54 53 52 51 50 48 47 46 45 44 43 42 41 40 40 39 38 37 36 36 35 34 33 33 32 31 31 30 29 28 28 27 26 25 24 24 23 22 21 20 20 19 19 18 18 17 17 16 16 15 15 14 14 14 13 13
108 107 106 105 103 102 101 99 97 95 92 89 86 82 80 77 75 73 71 69 67 65 63 62 61 59 58 57 56 54 53 52 51 49 48 47 46 45 44 43 43 42 41 40 39 38 37 37 36 35 34 34 33 32 31 31 30 29 28 27 27 26 25 24 24 23 22 21 21 20 19 19 18 18 17 17 16 16 15 15 14 14 13 13 13 13
107 106 104 103 102 101 99 97 95 92 89 86 83 80 77 75 73 71 69 67 66 64 62 61 59 58 57 56 55 53 52 51 50 49 47 46 45 44 43 43 42 41 40 39 38 38 37 36 35 35 34 33 32 31 31 30 29 28 27 27 26 25 24 24 23 22 21 21 20 19 19 18 17 17 16 16 16 15 15 14 14 14 13 13 13 13
105 104 103 102 100 99 97 95 92 89 86 83 80 78 75 73 71 69 68 66 64 63 61 60 58 57 56 55 54 52 51 50 49 48 47 46 45 44 43 42 41 40 40 39 38 37 36 35 35 34 33 32 32 31 30 29 28 28 27 26 25 24 24 23 22 22 21 20 19 19 18 17 17 16 16 15 15 14 14 14 13 13 13 13 12 12
104 103 102 101 99 98 96 93 90 87 83 80 78 75 73 72 70 68 66 65 63 61 60 58 57 56 55 54 53 51 50 49 48 47 46 45 44 43 42 42 41 40 39 38 37 37 36 35 34 33 33 32 31 30 29 29 28 27 26 25 25 24 23 22 22 21 20 20 19 18 18 17 16 16 15 15 14 14 14 13 13 13 12 12 12 12
103 102 101 99 98 96 93 90 87 84 81 78 76 74 72 70 68 66 65 63 62 60 59 58 56 55 54 53 52 51 49 48 47 46 45 44 43 42 42 41 40 39 39 38 37 36 35 35 34 33 32 31 31 30 29 28 28 27 26 25 24 23 23 22 21 20 20 19 19 18 17 17 16 16 15 14 14 14 13 13 13 12 12 12 12 12
102 101 100 98 96 94 91 88 84 81 78 76 74 72 70 68 67 65 63 62 61 59 58 57 55 54 53 52 51 50 48 47 46 45 44 43 42 42 41 40 39 39 38 38 37 36 35 34 34 33 32 31 30 29 29 28 27 26 25 25 24 23 22 22 21 20 19 19 18 18 17 17 16 16 15 14 14 13 13 13 12 12 12 12 12 12
101 100 98 97 94 92 88 85 82 79 76 74 72 70 69 67 65 64 62 61 59 58 57 56 55 53 52 51 50 49 48 47 46 45 44 43 42 41 40 40 39 38 38 37 37 36 35 34 34 33 32 31 30 29 28 27 27 26 25 24 23 23 22 21 20 20 19 19 18 18 17 17 16 15 15 15 14 13 13 13 12 12 12 12 11 11
99 98 97 95 92 89 86 82 79 76 74 72 70 69 67 65 64 62 61 60 58 57 56 55 54 53 51 50 49 48 47 46 45 44 43 42 41 41 40 39 39 38 38 37 36 36 35 34 33 32 32 30 29 29 28 27 26 25 24 24 23 22 22 21 20 20 19 19 18 17 17 16 16 15 15 14 14 14 13 13 12 12 12 11 11 11
98 97 95 92 90 86 83 80 77 74 72 70 69 67 66 64 62 61 60 58 57 56 55 54 53 52 51 50 49 47 46 45 44 43 42 42 41 40 40 39 39 38 38 37 36 35 35 34 33 32 31 30 29 28 27 27 26 25 24 23 23 22 21 21 20 19 19 18 18 17 17 16 16 15 15 14 14 13 13 13 12 12 12 11 11 11
97 95 93 90 87 84 80 77 75 72 71 69 67 66 64 63 61 60 58 57 56 55 54 53 52 51 50 49 48 47 46 45 44 43 42 42 41 40 40 39 39 38 37 37 36 35 34 33 33 32 31 30 29 28 27 26 25 25 24 23 22 21 21 20 19 19 18 18 17 17 16 16 15 15 14 14 14 13 13 12 12 12 11 11 11 11
Wind_Direction
323 323 323 323 323 323 322 322 322 322 322 322 322 321 321 320 320 319 319 318 318 317 317 316 315 315 314 314 313 313 312 312 312 311 311 310 310 309 309 309 308 308 307 307 306 306 305 305 305 304 304 304 303 303 303 303 302 302 302 302 301 301 301 301 300 300 299 298 297 296 295 294 294 293 292 291 291 290 290 289 289 288 287 286 284 283
323 323 323 323 323 323 322 322 322 322 322 322 322 321 321 320 320 319 319 318 318 317 316 316 315 315 314 313 313 313 312 312 312 311 311 311 310 310 309 309 308 308 307 307 306 306 305 305 305 305 304 304 304 304 303 303 303 303 303 302 302 302 302 301 301 300 299 298 298 297 296 295 294 294 293 292 292 292 291 291 290 289 287 286 284 283
323 323 323 323 323 323 322 322 322 322 322 322 322 321 321 320 320 319 319 318 318 317 316 316 315 314 314 313 313 313 312 312 312 312 311 311 310 310 309 309 308 308 307 307 306 306 306 305 305 305 305 305 304 304 304 304 304 304 303 303 303 303 302 302 301 300 299 299 298 297 296 296 295 295 294 294 294 293 293 291 290 289 287 285 284 283
323 323 323 323 323 323 322 322 322 322 322 322 322 321 321 320 320 319 318 318 317 317 316 315 315 314 314 313 313 313 313 312 312 312 311 311 310 310 309 309 308 308 307 307 307 306 306 306 306 306 305 305 305 305 305 305 305 304 304 304 304 303 302 302 301 300 299 299 298 298 297 297 296 296 296 295 295 294 293 291 290 288 287 285 284 283
323 323 323 323 323 322 322 322 322 322 322 322 321 321 320 320 319 319 318 317 317 316 316 315 315 314 314 313 313 313 313 312 312 312 311 311 310 310 309 309 308 308 308 307 307 307 307 307 307 306 306 306 306 306 306 306 305 305 305 305 304 303 302 302 301 300 299 299 298 298 298 298 298 297 297 296 295 294 292 291 289 288 286 285 284 283
322 322 323 323 322 322 322 322 322 322 322 321 321 321 320 319 319 318 318 317 317 316 316 315 315 314 314 314 313 313 313 313 312 312 311 311 311 310 310 309 309 309 308 308 308 308 308 308 307 307 307 307 307 307 307 306 306 306 305 305 304 303 302 301 301 300 299 299 299 298 298 298 298 298 297 296 294 293 291 290 288 287 286 285 285 284
322 322 322 322 322 322 322 322 322 322 322 321 321 320 320 319 319 318 318 317 317 316 316 315 315 314 314 314 314 313 313 313 313 312 312 312 311 311 310 310 310 309 309 309 309 309 309 308 308 308 308 308 308 307 307 307 306 306 305 305 304 303 302 301 301 300 300 299 299 299 298 298 298 297 296 294 293 291 290 289 288 288 287 286 286 285
322 322 322 322 322 322 322 322 322 321 321 321 320 320 319 319 318 318 317 317 316 316 316 316 315 315 315 314 314 314 314 314 313 313 313 312 312 312 311 311 310 310 310 310 310 309 309 309 309 309 308 308 308 308 308 307 307 306 305 304 304 303 302 302 302 301 301 300 300 299 298 297 296 295 294 292 291 290 289 289 288 288 288 287 287 286
322 322 322 322 322 322 322 322 321 321 321 320 320 319 319 318 318 318 317 317 317 316 316 316 316 315 315 315 315 315 314 314 314 314 313 313 312 312 311 311 311 310 310 310 310 309 309 309 309 309 309 309 308 308 307 307 306 306 305 304 304 303 303 303 303 302 302 301 300 299 298 297 295 294 293 292 291 290 290 289 289 288 288 287 287 286
322 322 322 322 322 322 322 321 321 321 320 320 319 319 319 318 318 318 317 317 317 317 317 317 316 316 316 316 315 315 315 315 314 314 313 313 312 312 311 311 311 310 310 310 309 309 309 309 309 309 309 308 308 308 307 307 306 305 305 304 304 304 304 304 304 303 302 302 301 299 298 297 295 294 293 292 291 290 290 289 289 288 288 287 287 286
321 322 322 322 322 321 321 321 321 321 320 320 319 319 319 318 318 318 318 318 318 318 317 317 317 317 316 316 316 315 315 315 314 314 313 313 312 311 311 311 310 310 310 309 309 309 309 309 309 309 308 308 308 307 307 306 305 305 304 304 304 304 304 304 304 303 303 302 301 300 299 298 296 295 294 293 292 291 290 290 289 288 288 287 287 286
321 321 321 321 321 321 321 321 321 320 320 320 320 319 319 319 319 319 319 318 318 318 318 318 317 317 316 316 315 315 315 314 314 313 313 312 312 311 311 311 310 310 309 309 309 309 309 309 308 308 308 308 307 307 306 305 305 305 305 305 305 305 304 304 303 303 302 302 301 301 300 299 298 296 295 294 293 292 291 290 289 288 288 288 287 286
321 321 321 321 321 321 321 321 321 320 320 320 320 320 320 320 320 319 319 319 318 318 318 318 317 316 316 315 315 315 314 314 314 313 312 312 311 311 311 310 310 310 309 309 309 309 309 309 308 308 308 307 307 306 305 305 305 305 305 305 305 304 304 303 303 302 302 302 301 301 300 299 298 297 296 295 294 292 291 290 290 289 289 288 288 287
321 321 321 321 321 321 321 321 321 321 320 320 320 320 320 320 320 319 319 318 318 318 318 317 317 316 315 315 315 314 314 314 313 313 312 311 311 311 311 310 310 310 309 309 309 309 309 309 308 308 307 307 306 306 305 305 305 305 305 305 304 304 303 303 303 302 302 302 301 301 300 299 299 298 297 295 295 293 292 292 291 290 289 289 288 288
321 321 321 321 321 321 321 321 321 321 321 320 320 320 320 320 319 319 319 318 318 318 317 317 316 316 315 315 315 314 314 314 313 313 312 311 311 311 311 310 310 310 310 309 309 309 309 309 308 308 307 306 306 305 305 305 305 305 305 304 304 303 303 303 303 302 302 302 301 301 300 300 299 298 297 296 295 295 294 293 292 291 290 290 289 288
321 321 321 321 321 321 321 321 321 321 321 321 320 320 320 320 319 319 318 318 318 317 317 316 316 316 315 315 315 314 314 314 313 313 312 311 311 311 311 311 310 310 310 309 309 309 309 309 308 308 307 306 306 306 306 306 305 305 305 304 304 303 303 303 303 302 302 302 301 301 300 300 299 299 298 297 296 295 294 294 293 292 291 290 289 288
321 321 321 321 321 321 321 321 321 321 321 320 320 320 320 319 319 318 318 318 317 317 317 316 316 316 315 315 315 315 314 314 313 313 312 312 312 312 312 311 311 310 310 310 310 310 309 309 308 307 307 306 306 306 306 306 306 305 305 305 304 304 304 303 303 303 302 302 301 301 301 300 300 299 298 298 297 296 295 294 293 292 291 290 289 288
321 321 321 322 321 321 321 321 321 321 320 320 320 320 319 319 319 318 318 318 317 317 317 317 316 316 316 315 315 315 315 314 313 313 313 312 312 312 312 311 311 310 310 310 310 310 310 309 308 307 307 307 307 307 307 306 306 306 305 305 305 305 304 304 303 303 303 302 302 302 301 300 300 299 299 298 297 296 295 294 293 292 291 290 289 287
321 321 322 322 322 321 321 321 321 320 320 320 320 320 319 319 319 318 318 318 318 317 317 317 317 316 316 316 316 315 315 314 314 313 313 313 313 313 312 312 311 311 310 310 310 310 309 309 308 308 307 307 307 307 307 307 307 306 306 306 306 305 305 304 304 304 303 303 302 302 301 301 300 300 299 298 298 297 296 295 294 293 292 291 289 288
321 321 322 322 321 321 321 321 320 320 320 320 320 320 319 319 319 318 318 318 318 318 318 317 317 317 317 316 316 316 316 315 314 314 314 313 313 313 313 312 311 311 311 311 311 310 309 309 308 308 308 308 308 308 308 307 307 307 307 307 306 306 305 305 305 304 304 303 303 302 302 302 301 300 300 299 298 298 297 296 295 294 293 291 290 289
321 321 321 321 321 321 321 320 320 320 320 320 320 320 319 319 319 319 319 319 318 318 318 318 318 317 317 317 317 316 316 315 315 314 314 313 313 313 313 312 311 311 311 311 311 310 309 309 309 309 309 309 309 308 308 308 308 308 308 307 307 306 306 306 305 305 305 304 304 303 303 302 302 301 300 300 299 298 298 297 296 295 294 292 291 290
321 321 321 321 321 321 320 320 320 320 320 320 320 320 320 320 319 319 319 319 319 319 319 318 318 318 317 317 317 316 316 316 315 314 314 314 313 313 313 312 312 311 311 311 311 310 310 310 310 310 310 310 309 309 309 309 309 308 308 308 307 307 307 306 306 306 305 305 305 304 304 303 303 302 302 301 300 299 299 298 296 295 294 293 292 292
321 321 321 321 321 321 320 320 320 321 321 321 321 320 320 320 320 320 319 319 319 319 319 319 318 318 318 317 317 317 316 316 315 315 314 314 313 313 313 313 312 312 312 311 311 311 311 310 311 311 311 310 310 310 310 310 309 309 309 308 308 308 308 307 307 307 307 306 306 305 305 304 304 303 303 302 301 300 300 299 298 296 295 294 293 292
321 321 321 321 321 321 321 321 321 321 321 321 321 321 320 320 320 320 320 320 320 319 319 319 319 318 318 318 318 317 317 316 316 315 315 314 314 314 314 313 313 312 312 312 312 312 312 312 312 312 312 312 311 311 311 310 310 310 309 309 309 309 309 309 308 308 308 307 307 307 306 305 305 304 304 303 302 301 300 299 298 297 296 295 293 292
321 321 321 321 321 321 321 321 321 321 321 321 321 321 321 321 320 320 320 320 320 320 320 319 319 319 319 318 318 318 317 317 316 316 315 315 315 315 314 314 314 314 314 314 313 313 313 313 313 313 313 313 312 312 312 311 311 310 310 310 310 310 310 310 310 310 309 309 308 307 307 306 305 305 304 303 302 301 300 299 298 296 295 294 293 292
321 321 321 321 321 321 321 321 321 321 322 321 321 321 321 321 321 321 321 321 321 321 320 320 320 319 319 319 318 318 318 317 317 316 316 316 316 316 315 315 315 315 315 315 315 314 314 314 314 314 314 313 313 313 312 312 312 311 311 311 311 311 311 311 311 311 310 310 309 308 307 306 305 304 303 302 301 300 299 298 296 295 294 292 291 290
321 322 322 322 322 322 322 322 322 322 322 322 322 322 322 321 321 321 321 321 321 321 321 320 320 320 319 319 319 318 318 317 317 317 317 317 317 316 316 316 316 316 316 316 316 315 315 315 315 315 315 314 314 314 313 313 313 312 312 312 313 313 312 312 312 311 311 310 309 308 307 306 304 303 302 301 300 299 297 296 294 293 292 291 289 288
322 322 322 322 322 322 322 322 322 322 322 322 322 322 322 322 322 322 322 322 322 321 321 320 320 320 319 319 319 318 318 318 318 318 318 318 317 317 317 317 317 317 317 317 317 316 316 316 316 316 316 315 315 315 315 314 314 314 314 314 314 313 313 313 312 312 311 310 308 307 306 305 303 302 301 300 298 297 296 294 293 292 290 289 288 286
322 322 322 322 322 322 322 323 322 322 322 322 322 322 322 322 322 322 322 322 322 321 321 321 320 320 319 319 319 318 318 318 318 318 318 318 318 318 318 317 317 317 317 317 317 317 317 317 316 316 316 316 316 316 316 315 315 315 315 315 315 314 314 313 312 311 310 309 307 306 305 304 303 301 300 299 298 296 295 294 292 291 290 288 287 285
322 322 322 322 322 323 323 323 323 323 322 322 322 322 323 323 323 323 322 322 322 321 321 321 320 320 319 319 319 319 318 318 318 319 319 319 319 319 318 318 318 318 318 318 318 318 317 317 317 317 317 317 317 317 317 316 316 316 316 315 315 314 314 313 312 310 309 308 307 306 305 304 302 302 300 300 298 297 296 294 293 292 291 289 288 286
322 322 322 322 323 323 323 323 323 323 323 323 323 323 323 323 323 323 323 322 322 321 321 321 320 320 320 319 319 319 319 319 319 319 319 319 319 319 319 319 319 319 319 319 319 319 318 318 318 318 318 318 318 318 317 317 317 317 316 316 315 314 313 312 311 310 309 308 307 306 305 305 304 303 302 301 300 299 298 296 295 294 293 291 290 288
322 322 322 322 323 323 323 323 323 323 323 323 323 323 323 323 323 323 323 323 322 322 321 321 320 320 320 320 320 320 319 320 320 320 320 320 320 320 320 320 320 320 320 320 320 320 319 319 319 319 318 319 319 318 318 318 318 317 316 316 315 314 313 312 312 311 310 309 309 308 307 306 306 305 304 304 303 302 301 300 299 297 296 295 293 292
322 322 322 323 323 323 323 323 323 323 323 323 324 324 324 324 324 324 323 323 322 322 321 321 321 321 321 320 320 320 320 320 320 321 321 321 321 321 321 321 321 321 321 321 321 320 320 320 320 320 319 319 319 319 319 318 318 317 316 315 315 314 313 313 313 312 312 312 311 310 310 310 309 308 308 307 307 306 305 304 302 301 299 298 296 294
322 322 323 323 323 323 323 323 323 324 324 324 324 324 324 324 324 324 323 323 323 322 322 322 321 321 321 321 321 321 321 321 321 321 322 322 322 322 322 322 322 322 322 321 321 321 321 321 321 321 321 320 320 320 319 319 318 317 317 316 315 315 314 314 314 314 314 314 314 314 313 313 312 312 311 310 309 309 308 306 305 302 301 299 297 295
323 323 323 323 324 324 324 324 324 324 324 325 325 325 325 324 324 324 324 323 323 322 322 322 322 322 322 322 322 322 322 322 322 322 322 323 323 323 323 323 323 322 323 322 322 322 322 322 322 321 321 321 321 320 320 319 319 318 317 317 316 316 316 317 317 317 317 317 317 317 316 315 315 313 313 312 310 310 308 306 304 302 300 297 295 293
323 323 324 324 324 324 324 325 325 325 325 325 325 325 325 325 324 324 324 323 323 323 323 323 323 323 323 323 323 323 323 323 323 323 323 324 324 324 324 324 324 324 323 323 323 323 322 322 322 322 322 321 321 321 320 320 320 319 319 319 319 319 319 319 319 319 319 319 318 318 317 316 315 313 312 311 309 307 306 304 301 299 297 295 293 291
324 324 324 325 325 325 325 325 325 325 326 326 325 325 325 325 324 324 324 324 324 324 323 323 323 323 324 324 324 324 324 324 324 324 325 325 325 325 325 325 325 324 324 324 324 324 323 323 323 323 322 322 322 321 321 321 321 321 320 321 321 321 321 322 322 321 320 319 318 317 316 314 313 312 310 308 307 304 302 301 299 296 295 293 292 290
324 325 325 325 325 325 326 326 326 326 326 326 326 325 325 325 325 324 324 324 324 324 324 324 324 324 324 325 325 325 325 325 325 326 326 326 326 326 326 326 326 325 325 325 325 324 324 324 324 323 323 323 322 322 322 322 322 322 322 322 323 323 323 323 322 321 320 318 317 315 313 312 310 309 307 306 304 302 300 298 297 295 294 292 291 290
325 325 326 326 326 326 326 326 326 326 326 326 326 326 325 325 325 325 325 325 325 325 325 325 325 325 325 326 326 326 326 326 326 327 327 327 327 327 327 327 326 326 326 326 326 326 325 325 325 324 324 324 324 323 323 323 324 324 324 324 324 324 323 323 322 320 319 317 315 313 311 310 308 307 305 304 302 300 299 297 296 294 293 292 291 290
326 326 326 326 326 326 327 326 327 326 326 326 326 326 325 325 325 325 325 325 326 326 326 326 326 326 326 326 327 327 327 327 327 327 328 328 328 328 328 327 327 327 327 327 327 326 326 326 326 326 325 325 325 325 325 325 325 325 325 325 324 323 323 321 320 319 317 316 314 312 310 308 306 305 303 302 301 299 298 297 295 294 292 291 290 288
326 326 326 326 327 327 327 327 327 327 326 326 326 326 325 325 325 326 326 326 326 326 327 327 327 327 327 327 328 328 328 328 328 328 328 328 328 328 328 328 328 328 328 328 327 327 327 327 327 327 327 327 327 327 326 326 326 325 325 325 324 323 322 321 319 318 317 315 313 311 309 307 305 304 302 301 300 299 297 296 294 293 291 289 287 286
326 327 327 327 327 327 327 327 327 327 327 326 326 326 326 326 326 326 327 327 327 327 327 327 328 328 328 328 328 329 329 329 329 329 329 329 329 329 329 329 329 328 328 328 328 328 328 328 328 328 328 327 327 327 327 326 326 325 325 324 323 322 321 320 319 317 316 314 312 310 308 307 304 302 301 299 298 297 295 294 292 290 289 287 285 284
327 327 327 327 327 328 328 327 327 327 327 327 326 326 326 327 327 327 328 328 328 328 328 328 328 329 329 329 329 330 330 330 330 330 330 330 330 330 330 329 329 329 329 329 329 329 328 328 328 328 328 328 327 327 326 326 325 325 324 324 323 322 321 320 318 317 315 313 311 309 308 305 303 301 299 298 296 294 293 291 289 287 285 284 282 281
327 328 328 328 328 328 328 328 328 327 327 327 327 327 327 327 328 328 328 329 329 329 329 329 329 330 330 330 330 331 331 331 331 331 331 331 331 331 330 330 330 330 329 329 329 329 329 329 329 328 328 327 327 326 326 325 325 324 324 323 322 322 321 319 318 316 314 312 310 308 306 304 302 300 298 296 294 292 290 288 286 284 282 281 280 279
328 328 328 328 328 328 328 328 328 328 327 327 327 328 328 328 329 329 329 329 329 330 330 330 330 331 331 331 331 332 331 331 332 332 332 332 332 331 331 331 331 330 330 330 329 329 329 329 328 328 327 327 326 326 325 325 324 324 323 323 322 321 319 318 316 315 313 311 309 307 305 303 301 298 296 294 292 289 287 285 283 281 280 279 278 276
329 329 329 329 329 329 328 328 328 328 328 328 328 329 329 329 329 330 330 330 330 330 331 331 331 332 332 332 332 332 332 332 332 332 333 332 332 332 332 331 331 330 330 330 330 329 329 329 328 328 327 327 326 325 325 325 324 324 323 322 321 320 318 317 315 314 312 310 308 306 304 302 300 298 295 292 290 287 286 284 282 279 278 276 275 274
329 329 329 329 329 329 329 329 328 328 328 329 329 329 330 330 330 330 330 330 331 331 331 332 332 332 333 333 333 333 333 333 333 333 333 333 333 333 332 332 331 331 331 330 330 330 329 329 328 328 327 327 326 326 325 325 324 324 323 322 320 319 318 316 315 313 312 310 308 306 304 302 300 297 295 292 290 287 285 283 281 279 277 276 274 272
330 330 330 329 329 329 329 329 329 329 329 329 330 330 330 331 331 331 331 331 331 332 332 332 333 333 333 334 334 334 334 334 334 334 334 334 334 333 333 332 332 331 331 330 330 330 329 329 328 328 328 327 326 326 325 325 324 323 322 321 320 319 318 316 315 314 312 310 308 306 305 302 300 298 296 293 291 288 286 284 282 280 277 276 274 272
330 330 330 330 329 329 329 329 329 329 330 330 331 331 331 331 331 331 331 332 332 332 333 333 334 334 334 334 334 334 334 335 335 335 335 334 334 334 333 333 332 332 331 331 330 330 330 329 329 328 328 328 327 326 325 325 324 323 322 321 320 319 318 316 315 314 313 311 309 307 306 304 302 300 298 295 292 290 287 284 282 280 278 276 274 272
330 330 330 330 330 330 330 330 330 330 331 331 331 332 332 332 332 332 332 332 333 333 334 334 334 335 335 335 335 335 335 335 335 335 335 335 334 334 334 333 333 332 332 331 330 330 329 329 329 329 329 328 328 327 326 325 324 323 322 321 320 319 318 317 316 315 314 312 311 309 308 306 304 303 301 297 294 292 289 286 283 281 279 277 275 274
331 330 330 330 330 330 330 330 331 331 332 332 332 332 332 332 332 332 333 333 333 334 334 335 335 335 335 336 336 336 336 336 336 336 336 335 335 335 334 333 333 332 332 331 330 330 329 329 329 329 329 329 328 328 327 326 325 324 323 322 321 321 320 319 318 317 316 314 313 311 310 308 306 305 302 299 296 293 289 286 283 281 279 277 276 275
Height
10455 10450 10446 10441 10436 10430 10424 10421 10416 10412 10406 10400 10394 10389 10384 10378 10373 10368 10363 10358 10353 10348 10342 10337 10331 10326 10321 10316 10311 10306 10301 10297 10292 10287 10282 10277 10272 10267 10262 10257 10252 10247 10242 10238 10234 10229 10225 10221 10217 10213 10209 10205 10202 10199 10195 10192 10189 10186 10184 10180 10178 10175 10172 10169 10166 10163 10160 10157 10154 10150 10147 10145 10142 10140 10138 10136 10134 10133 10132 10131 10129 10128 10126 10124 10122 10119
10447 10442 10438 10434 10429 10424 10417 10412 10408 10404 10399 10394 10388 10382 10377 10371 10366 10360 10355 10350 10345 10340 10335 10330 10324 10319 10314 10309 10304 10299 10294 10289 10284 10279 10274 10269 10264 10258 10253 10248 10243 10238 10234 10229 10224 10220 10216 10212 10208 10204 10200 10197 10193 10190 10186 10183 10180 10177 10174 10172 10169 10166 10163 10160 10157 10154 10150 10147 10144 10140 10138 10135 10134 10131 10129 10127 10126 10125 10124 10122 10121 10119 10117 10115 10112 10110
10442 10437 10431 10426 10422 10417 10412 10406 10401 10396 10392 10387 10381 10376 10371 10365 10359 10354 10349 10343 10337 10332 10327 10322 10317 10312 10306 10301 10296 10291 10286 10281 10277 10272 10266 10261 10255 10249 10244 10239 10234 10229 10224 10220 10215 10211 10207 10203 10199 10195 10192 10188 10184 10180 10177 10174 10171 10168 10165 10163 10160 10157 10154 10151 10148 10144 10141 10138 10134 10131 10129 10127 10124 10122 10121 10120 10119 10117 10115 10114 10112 10110 10107 10105 10104 10102
10437 10431 10426 10420 10414 10409 10404 10400 10395 10390 10385 10380 10375 10369 10363 10358 10353 10347 10342 10337 10332 10326 10321 10315 10310 10305 10299 10294 10289 10284 10279 10274 10269 10264 10258 10253 10247 10241 10236 10230 10225 10220 10215 10211 10207 10202 10199 10195 10191 10187 10183 10179 10175 10172 10169 10165 10162 10159 10157 10154 10151 10149 10145 10142 10139 10135 10132 10129 10126 10123 10120 10119 10117 10115 10114 10112 10110 10109 10107 10105 10103 10101 10099 10097 10095 10094
10430 10426 10420 10414 10409 10403 10397 10392 10388 10383 10378 10373 10368 10363 10357 10352 10346 10341 10336 10331 10326 10320 10314 10308 10302 10297 10291 10286 10281 10276 10271 10266 10261 10256 10250 10244 10239 10233 10227 10222 10217 10211 10206 10202 10197 10194 10189 10185 10182 10178 10174 10170 10167 10163 10160 10156 10153 10150 10148 10145 10142 10139 10137 10134 10130 10127 10124 10122 10119 10116 10114 10112 10110 10108 10106 10104 10102 10100 10099 10096 10094 10092 10090 10089 10088 10087
10423 10419 10415 10409 10404 10398 10392 10387 10382 10377 10372 10366 10361 10356 10351 10346 10341 10335 10329 10323 10318 10312 10307 10301 10296 10290 10284 10278 10272 10268 10263 10259 10253 10247 10241 10235 10230 10224 10219 10212 10207 10202 10197 10192 10188 10184 10180 10176 10172 10169 10165 10161 10158 10154 10151 10148 10144 10141 10139 10136 10134 10130 10127 10125 10122 10120 10117 10115 10113 10110 10108 10106 10104 10102 10100 10097 10095 10092 10090 10088 10086 10084 10083 10082 10081 10080
10417 10412 10408 10404 10398 10392 10387 10382 10377 10372 10367 10361 10355 10349 10344 10339 10335 10329 10324 10317 10311 10305 10299 10294 10288 10282 10277 10271 10265 10259 10254 10249 10244 10238 10232 10226 10220 10215 10209 10203 10197 10192 10187 10182 10178 10174 10170 10166 10162 10159 10155 10152 10149 10145 10143 10139 10136 10132 10130 10127 10124 10121 10119 10117 10115 10113 10111 10109 10107 10105 10102 10100 10098 10095 10093 10090 10087 10085 10082 10080 10079 10077 10076 10075 10075 10074
10412 10406 10401 10397 10392 10387 10380 10374 10370 10367 10362 10356 10350 10344 10337 10332 10326 10322 10317 10312 10306 10299 10292 10286 10279 10273 10268 10263 10257 10251 10244 10238 10233 10227 10222 10215 10210 10204 10199 10194 10188 10183 10178 10173 10169 10164 10160 10157 10153 10150 10147 10144 10140 10137 10134 10131 10128 10124 10121 10118 10115 10112 10110 10108 10107 10105 10104 10103 10101 10099 10097 10095 10092 10089 10087 10084 10080 10078 10075 10074 10072 10071 10070 10069 10068 10068
10408 10402 10396 10391 10387 10382 10376 10369 10362 10358 10354 10349 10344 10339 10333 10326 10319 10313 10308 10304 10299 10292 10286 10279 10271 10264 10257 10252 10247 10242 10236 10229 10223 10217 10212 10206 10200 10194 10189 10184 10180 10175 10170 10165 10160 10156 10152 10148 10145 10142 10139 10135 10132 10129 10126 10123 10119 10116 10112 10109 10106 10104 10102 10100 10099 10097 10096 10095 10094 10092 10090 10087 10085 10082 10080 10077 10074 10072 10070 10069 10067 10065 10064 10063 10062 10062
10402 10397 10392 10386 10381 10376 10372 10366 10359 10352 10347 10341 10336 10331 10327 10322 10315 10307 10299 10293 10288 10283 10277 10271 10264 10257 10249 10242 10236 10232 10227 10221 10215 10209 10204 10198 10192 10187 10181 10177 10172 10167 10162 10158 10153 10149 10144 10141 10137 10134 10131 10129 10125 10122 10119 10115 10112 10108 10104 10102 10099 10097 10094 10092 10090 10089 10088 10087 10085 10084 10082 10080 10078 10075 10074 10071 10069 10067 10065 10064 10062 10060 10059 10057 10057 10056
10396 10391 10386 10381 10375 10369 10364 10359 10353 10347 10342 10335 10328 10322 10317 10312 10307 10301 10293 10286 10279 10274 10267 10261 10255 10249 10243 10235 10229 10222 10218 10213 10208 10202 10196 10190 10185 10179 10174 10170 10165 10160 10155 10151 10146 10142 10138 10134 10131 10128 10125 10122 10119 10115 10112 10108 10104 10101 10098 10095 10092 10090 10088 10085 10084 10082 10080 10079 10077 10075 10074 10072 10070 10069 10067 10065 10063 10062 10059 10057 10055 10054 10053 10052 10051 10050
10391 10386 10381 10376 10370 10364 10358 10352 10346 10339 10334 10327 10321 10313 10306 10301 10296 10291 10285 10278 10272 10266 10261 10253 10246 10241 10235 10229 10223 10217 10212 10206 10201 10195 10189 10183 10177 10172 10167 10163 10159 10154 10149 10144 10140 10136 10132 10129 10125 10122 10119 10115 10112 10109 10105 10102 10098 10095 10092 10089 10087 10084 10082 10080 10077 10075 10073 10072 10070 10069 10067 10065 10064 10062 10060 10059 10057 10055 10054 10052 10050 10049 10048 10047 10046 10045
10385 10380 10375 10369 10364 10358 10352 10345 10338 10332 10326 10319 10314 10307 10299 10293 10287 10282 10276 10270 10264 10259 10255 10248 10241 10233 10227 10221 10216 10210 10205 10200 10195 10189 10182 10176 10170 10165 10160 10156 10152 10147 10142 10137 10134 10130 10126 10123 10119 10116 10113 10109 10106 10103 10099 10095 10092 10090 10087 10085 10082 10079 10077 10074 10072 10069 10067 10065 10064 10062 10060 10059 10057 10056 10054 10053 10051 10050 10048 10047 10045 10044 10043 10042 10041 10040
10379 10373 10367 10362 10356 10351 10345 10339 10332 10325 10318 10312 10307 10301 10294 10288 10282 10276 10270 10263 10257 10252 10247 10242 10235 10227 10221 10215 10210 10204 10198 10193 10188 10182 10175 10169 10164 10159 10154 10149 10145 10140 10136 10131 10127 10124 10120 10117 10114 10110 10107 10104 10100 10097 10094 10090 10088 10085 10083 10080 10077 10074 10071 10069 10067 10064 10062 10060 10059 10057 10055 10053 10052 10050 10049 10047 10045 10044 10043 10042 10040 10039 10039 10037 10037 10035
10372 10367 10361 10356 10349 10344 10338 10332 10326 10319 10312 10306 10300 10294 10288 10281 10275 10269 10263 10257 10251 10246 10241 10235 10228 10221 10214 10209 10204 10199 10192 10186 10180 10175 10169 10162 10156 10152 10147 10142 10138 10134 10129 10125 10120 10117 10115 10112 10108 10105 10101 10097 10094 10090 10088 10085 10083 10080 10078 10075 10072 10069 10067 10064 10062 10059 10057 10055 10053 10051 10050 10048 10046 10045 10044 10042 10040 10039 10038 10037 10036 10035 10034 10033 10032 10031
10366 10361 10355 10349 10343 10337 10331 10325 10319 10313 10306 10300 10294 10288 10282 10276 10269 10262 10256 10250 10244 10239 10233 10228 10222 10215 10207 10201 10197 10193 10187 10180 10173 10167 10162 10155 10149 10145 10141 10136 10131 10127 10122 10119 10115 10112 10109 10106 10102 10099 10095 10091 10088 10085 10083 10080 10078 10075 10072 10070 10067 10064 10062 10059 10057 10055 10052 10050 10049 10047 10045 10043 10042 10040 10039 10037 10035 10034 10033 10032 10031 10030 10029 10029 10027 10027
10359 10354 10349 10342 10336 10330 10324 10318 10312 10306 10300 10294 10288 10282 10277 10270 10264 10257 10251 10244 10238 10232 10225 10220 10215 10209 10202 10195 10189 10185 10180 10174 10167 10160 10155 10148 10143 10139 10135 10130 10125 10120 10116 10112 10109 10107 10104 10100 10097 10093 10089 10086 10083 10080 10077 10075 10072 10070 10067 10065 10062 10060 10057 10055 10052 10050 10048 10046 10044 10042 10040 10039 10037 10035 10034 10032 10031 10030 10029 10028 10027 10026 10025 10024 10023 10022
10352 10347 10342 10336 10329 10322 10317 10312 10306 10300 10293 10287 10281 10275 10269 10262 10256 10250 10244 10237 10231 10225 10218 10212 10206 10201 10195 10189 10182 10177 10173 10166 10159 10153 10147 10142 10137 10132 10129 10124 10119 10114 10110 10107 10104 10101 10098 10094 10090 10087 10084 10080 10078 10075 10072 10070 10067 10064 10062 10060 10057 10055 10052 10050 10048 10045 10044 10041 10039 10037 10036 10034 10032 10031 10030 10029 10027 10026 10025 10024 10022 10022 10020 10020 10019 10018
10346 10341 10336 10331 10323 10316 10309 10304 10300 10294 10288 10282 10276 10269 10262 10256 10249 10242 10236 10230 10223 10217 10210 10204 10198 10192 10187 10182 10175 10170 10165 10159 10152 10146 10141 10135 10130 10126 10123 10118 10114 10109 10105 10102 10099 10096 10093 10089 10085 10082 10079 10076 10074 10070 10067 10065 10062 10059 10057 10055 10052 10050 10047 10045 10043 10041 10039 10037 10035 10034 10032 10030 10029 10027 10026 10024 10023 10022 10021 10020 10019 10018 10017 10016 10015 10014
10339 10333 10329 10324 10318 10311 10303 10297 10292 10287 10282 10276 10269 10262 10256 10249 10242 10236 10230 10223 10216 10209 10202 10196 10190 10184 10179 10174 10168 10162 10157 10151 10145 10139 10134 10129 10125 10120 10117 10112 10108 10104 10100 10097 10094 10091 10087 10084 10080 10077 10074 10072 10069 10066 10063 10060 10057 10055 10052 10050 10047 10045 10043 10041 10039 10037 10035 10033 10031 10030 10028 10026 10025 10024 10022 10020 10020 10019 10017 10016 10015 10014 10013 10012 10012 10011
10333 10327 10321 10316 10311 10305 10298 10291 10285 10280 10275 10269 10262 10255 10247 10241 10234 10227 10220 10215 10208 10201 10195 10189 10182 10176 10170 10165 10160 10155 10150 10144 10139 10133 10129 10124 10119 10115 10112 10107 10103 10099 10095 10092 10089 10086 10082 10079 10075 10073 10070 10067 10064 10061 10059 10055 10053 10050 10048 10045 10043 10041 10039 10037 10035 10033 10031 10029 10027 10026 10024 10023 10021 10020 10019 10017 10016 10015 10014 10013 10012 10011 10010 10009 10008 10007
10329 10322 10316 10310 10304 10298 10292 10285 10279 10272 10267 10261 10255 10247 10240 10233 10226 10219 10212 10206 10200 10194 10187 10180 10174 10169 10164 10158 10153 10148 10144 10139 10133 10128 10123 10119 10114 10110 10107 10102 10098 10094 10091 10088 10085 10081 10077 10074 10071 10069 10066 10063 10060 10057 10054 10052 10049 10046 10044 10041 10039 10037 10035 10033 10031 10029 10027 10026 10024 10022 10021 10019 10018 10017 10015 10014 10013 10012 10011 10010 10009 10008 10007 10006 10005 10005
10322 10316 10309 10303 10297 10291 10284 10277 10271 10265 10259 10253 10247 10240 10233 10226 10220 10213 10206 10199 10193 10187 10180 10174 10167 10162 10157 10152 10147 10142 10137 10132 10127 10122 10118 10114 10109 10105 10102 10098 10094 10090 10087 10084 10080 10075 10072 10069 10067 10064 10062 10059 10055 10053 10050 10047 10045 10042 10040 10037 10035 10033 10031 10029 10028 10026 10024 10022 10021 10019 10018 10016 10015 10014 10012 10011 10010 10009 10008 10007 10006 10005 10004 10003 10002 10002
10315 10309 10302 10296 10290 10283 10277 10270 10264 10257 10252 10246 10239 10232 10225 10218 10212 10205 10199 10193 10187 10180 10174 10167 10161 10155 10149 10144 10139 10135 10130 10126 10121 10117 10112 10109 10105 10100 10097 10093 10089 10085 10082 10079 10075 10071 10067 10065 10062 10060 10057 10054 10052 10049 10046 10044 10040 10038 10036 10034 10032 10030 10028 10026 10024 10023 10021 10020 10018 10016 10015 10014 10012 10010 10009 10008 10007 10005 10005 10004 10003 10002 10001 10000 10000 9999
10310 10304 10297 10290 10284 10277 10270 10264 10257 10251 10244 10239 10232 10225 10217 10210 10203 10197 10191 10185 10179 10172 10166 10160 10154 10147 10142 10137 10132 10127 10124 10119 10115 10110 10107 10102 10099 10095 10091 10087 10084 10080 10077 10074 10070 10066 10063 10060 10058 10055 10053 10050 10047 10045 10042 10039 10037 10035 10032 10030 10029 10027 10025 10023 10022 10020 10018 10017 10015 10014 10012 10010 10009 10007 10006 10005 10004 10003 10002 10000 10000 9999 9998 9997 9997 9996
10303 10297 10291 10284 10277 10270 10263 10257 10250 10244 10237 10230 10224 10217 10210 10203 10195 10189 10183 10177 10171 10165 10159 10152 10146 10140 10135 10130 10126 10121 10117 10112 10109 10105 10101 10097 10093 10089 10085 10082 10079 10075 10072 10069 10065 10062 10059 10055 10054 10051 10049 10046 10044 10041 10039 10036 10034 10032 10029 10027 10026 10024 10022 10020 10019 10017 10015 10014 10012 10010 10009 10007 10006 10005 10004 10002 10001 10000 9999 9997 9997 9996 9995 9994 9994 9994
10296 10289 10282 10276 10269 10262 10256 10249 10242 10235 10229 10223 10217 10210 10204 10197 10189 10182 10176 10170 10164 10158 10152 10146 10140 10134 10129 10125 10120 10115 10111 10107 10103 10099 10096 10092 10089 10084 10080 10077 10074 10070 10067 10064 10061 10058 10054 10052 10049 10047 10045 10042 10040 10037 10035 10033 10030 10029 10027 10025 10023 10021 10020 10018 10016 10014 10012 10011 10009 10007 10006 10004 10003 10002 10000 9999 9998 9997 9995 9995 9994 9993 9992 9992 9991 9990
10289 10282 10275 10269 10262 10256 10249 10241 10235 10228 10222 10215 10209 10203 10197 10190 10184 10176 10170 10164 10158 10152 10146 10141 10135 10129 10124 10119 10115 10110 10106 10102 10098 10095 10091 10088 10084 10080 10076 10072 10069 10066 10064 10060 10057 10054 10051 10048 10045 10043 10041 10039 10037 10034 10032 10030 10027 10025 10024 10022 10020 10019 10017 10015 10014 10012 10010 10008 10006 10005 10003 10002 10000 9999 9997 9997 9995 9994 9993 9992 9991 9990 9990 9989 9989 9988
10281 10274 10268 10262 10256 10249 10242 10235 10229 10222 10215 10209 10203 10197 10190 10184 10178 10172 10165 10159 10152 10147 10141 10135 10130 10125 10120 10115 10110 10106 10102 10098 10094 10090 10087 10084 10080 10076 10072 10069 10065 10062 10060 10057 10054 10051 10048 10045 10042 10040 10038 10036 10034 10032 10029 10027 10025 10023 10021 10019 10017 10015 10014 10012 10010 10009 10007 10005 10004 10002 10000 9999 9997 9996 9995 9994 9993 9992 9991 9990 9989 9988 9987 9987 9986 9985
10274 10267 10261 10255 10249 10242 10236 10229 10223 10216 10210 10204 10197 10190 10185 10179 10173 10167 10160 10154 10148 10142 10136 10131 10126 10121 10116 10111 10106 10102 10097 10094 10090 10087 10083 10079 10075 10072 10069 10065 10061 10059 10056 10054 10050 10048 10045 10042 10039 10037 10035 10033 10031 10029 10027 10024 10022 10020 10018 10016 10014 10013 10011 10009 10008 10006 10004 10003 10001 10000 9998 9997 9995 9994 9993 9992 9991 9990 9989 9988 9987 9987 9985 9985 9984 9984
10269 10263 10256 10250 10244 10237 10231 10224 10217 10210 10204 10198 10192 10185 10179 10173 10167 10161 10155 10149 10143 10137 10132 10127 10122 10117 10113 10108 10103 10098 10094 10089 10086 10083 10079 10075 10072 10069 10065 10062 10058 10055 10052 10050 10047 10045 10042 10039 10037 10034 10032 10030 10028 10026 10024 10022 10020 10018 10015 10014 10012 10010 10008 10007 10005 10004 10002 10000 9999 9997 9996 9995 9994 9992 9991 9990 9989 9989 9987 9987 9986 9985 9984 9984 9983 9982
10266 10259 10252 10246 10239 10233 10226 10219 10212 10205 10199 10192 10185 10179 10174 10167 10162 10155 10150 10144 10139 10133 10127 10122 10117 10114 10109 10105 10100 10095 10090 10086 10082 10079 10075 10072 10069 10065 10062 10059 10055 10052 10049 10046 10044 10042 10039 10036 10034 10032 10030 10028 10025 10024 10022 10020 10018 10015 10014 10011 10009 10007 10005 10004 10002 10001 9999 9998 9997 9995 9994 9993 9992 9991 9990 9989 9988 9987 9986 9985 9985 9984 9983 9982 9982 9981
10261 10255 10248 10241 10234 10227 10220 10214 10207 10200 10193 10187 10180 10174 10168 10162 10156 10150 10145 10139 10134 10129 10123 10118 10113 10109 10105 10100 10097 10092 10088 10084 10079 10075 10072 10069 10065 10062 10059 10055 10052 10049 10046 10043 10040 10039 10036 10034 10031 10029 10027 10025 10023 10021 10019 10017 10015 10014 10011 10009 10007 10005 10003 10002 10000 9999 9997 9996 9995 9994 9993 9992 9990 9990 9989 9987 9987 9986 9985 9984 9984 9983 9982 9981 9980 9980
10256 10249 10243 10235 10229 10221 10214 10208 10201 10194 10187 10181 10175 10169 10162 10157 10151 10145 10140 10135 10129 10124 10119 10114 10109 10105 10100 10096 10092 10088 10084 10080 10077 10073 10069 10066 10062 10059 10056 10053 10050 10047 10044 10040 10038 10035 10033 10030 10029 10026 10024 10022 10020 10019 10017 10015 10013 10011 10009 10007 10005 10003 10001 10000 9998 9997 9995 9994 9993 9992 9991 9990 9989 9988 9987 9986 9985 9984 9984 9982 9982 9981 9980 9980 9979 9979
10250 10243 10237 10230 10222 10215 10208 10201 10194 10187 10181 10175 10169 10163 10157 10151 10145 10140 10135 10130 10125 10120 10115 10110 10105 10101 10097 10092 10088 10084 10080 10077 10073 10070 10066 10063 10060 10056 10053 10050 10047 10045 10042 10039 10036 10034 10030 10029 10026 10024 10022 10020 10018 10016 10014 10012 10010 10009 10007 10005 10003 10001 10000 9999 9997 9995 9994 9993 9992 9990 9989 9989 9987 9987 9985 9984 9984 9982 9982 9980 9980 9979 9979 9978 9977 9977
10244 10237 10230 10224 10216 10209 10202 10195 10188 10182 10175 10169 10163 10157 10152 10146 10141 10136 10131 10126 10121 10116 10111 10106 10102 10097 10093 10089 10085 10080 10077 10073 10070 10066 10063 10060 10057 10054 10050 10047 10045 10042 10039 10037 10034 10031 10029 10026 10024 10022 10020 10017 10015 10014 10012 10010 10008 10006 10004 10003 10001 10000 9999 9997 9995 9994 9993 9991 9990 9989 9987 9987 9985 9984 9984 9982 9982 9980 9980 9979 9978 9977 9976 9976 9975 9975
10238 10231 10224 10217 10210 10203 10196 10189 10182 10176 10170 10164 10157 10152 10147 10142 10136 10131 10127 10122 10117 10112 10107 10102 10098 10094 10089 10085 10082 10077 10074 10070 10066 10063 10060 10057 10054 10050 10048 10045 10042 10040 10037 10034 10032 10029 10027 10025 10022 10020 10018 10015 10014 10012 10009 10008 10006 10004 10002 10001 9999 9998 9997 9995 9994 9993 9991 9990 9989 9987 9985 9984 9983 9982 9981 9980 9980 9979 9978 9977 9976 9975 9975 9974 9974 9974
10232 10225 10218 10211 10204 10197 10190 10184 10177 10171 10165 10159 10153 10147 10142 10137 10132 10127 10122 10118 10113 10109 10104 10099 10094 10090 10086 10082 10079 10074 10070 10067 10064 10060 10057 10054 10051 10048 10045 10042 10040 10037 10035 10032 10030 10027 10025 10023 10020 10018 10016 10014 10012 10010 10008 10006 10004 10002 10001 9999 9998 9996 9995 9994 9992 9991 9989 9988 9987 9985 9984 9982 9981 9980 9979 9979 9977 9977 9976 9975 9975 9974 9974 9973 9973 9972
10227 10219 10212 10206 10199 10192 10185 10179 10172 10166 10160 10155 10149 10144 10138 10133 10128 10123 10119 10114 10109 10105 10100 10095 10091 10087 10083 10079 10075 10072 10068 10064 10061 10058 10054 10052 10049 10045 10043 10040 10037 10035 10032 10030 10027 10025 10023 10020 10019 10016 10014 10012 10010 10008 10006 10004 10002 10001 9999 9997 9996 9995 9993 9992 9990 9989 9987 9986 9985 9983 9982 9980 9979 9979 9977 9977 9976 9975 9975 9974 9974 9973 9972 9972 9972 9971
10221 10214 10207 10201 10194 10188 10182 10175 10169 10162 10156 10150 10145 10139 10134 10129 10124 10120 10115 10110 10106 10102 10097 10093 10089 10084 10080 10077 10073 10069 10066 10062 10059 10055 10052 10049 10046 10044 10040 10038 10035 10032 10030 10028 10025 10023 10020 10019 10016 10014 10012 10010 10008 10006 10004 10002 10000 9999 9997 9996 9994 9993 9991 9990 9989 9987 9985 9984 9983 9982 9980 9979 9978 9977 9976 9975 9974 9974 9973 9973 9972 9972 9971 9970 9970 9970
10217 10210 10203 10196 10189 10183 10177 10170 10164 10159 10152 10147 10140 10135 10130 10125 10120 10116 10112 10107 10103 10099 10094 10090 10085 10082 10078 10074 10070 10067 10064 10060 10057 10054 10050 10047 10044 10041 10039 10036 10033 10030 10028 10025 10024 10021 10019 10017 10014 10012 10010 10008 10006 10004 10002 10000 9999 9997 9995 9994 9992 9991 9989 9988 9986 9985 9984 9982 9981 9980 9979 9977 9977 9975 9975 9974 9973 9972 9972 9972 9971 9970 9970 9970 9969 9969
10213 10206 10199 10192 10185 10179 10172 10166 10160 10154 10148 10142 10137 10132 10127 10122 10117 10112 10108 10104 10099 10095 10091 10087 10083 10079 10075 10072 10068 10065 10062 10058 10055 10052 10049 10045 10042 10040 10037 10034 10031 10029 10026 10024 10022 10019 10017 10015 10012 10010 10008 10006 10004 10002 10000 9999 9997 9995 9994 9992 9990 9989 9987 9986 9985 9983 9982 9980 9979 9978 9977 9976 9975 9974 9974 9972 9972 9971 9970 9970 9970 9969 9969 9969 9968 9968
10208 10201 10194 10187 10180 10174 10169 10162 10156 10150 10144 10139 10133 10128 10123 10119 10114 10109 10105 10100 10096 10092 10088 10084 10080 10077 10073 10069 10065 10062 10059 10056 10053 10050 10047 10044 10040 10038 10035 10032 10029 10027 10024 10022 10020 10017 10015 10013 10010 10009 10006 10004 10002 10000 9999 9997 9995 9993 9992 9990 9989 9987 9985 9984 9982 9981 9980 9979 9977 9977 9975 9975 9974 9973 9972 9971 9970 9970 9969 9969 9969 9968 9967 9967 9967 9967
10204 10197 10190 10183 10177 10170 10164 10158 10152 10146 10140 10135 10129 10124 10119 10115 10110 10105 10101 10097 10093 10089 10085 10082 10078 10074 10070 10067 10064 10060 10057 10054 10050 10047 10045 10042 10039 10036 10033 10030 10027 10025 10022 10020 10018 10015 10013 10011 10009 10007 10004 10002 10000 9999 9997 9995 9993 9991 9990 9988 9987 9985 9984 9982 9980 9979 9978 9977 9975 9975 9974 9973 9972 9971 9970 9970 9969 9969 9968 9967 9967 9967 9966 9966 9965 9965
10199 10192 10185 10178 10172 10165 10159 10154 10147 10142 10137 10131 10126 10121 10116 10112 10107 10102 10098 10094 10090 10086 10082 10079 10075 10072 10068 10065 10062 10058 10055 10052 10049 10045 10043 10040 10037 10034 10031 10029 10025 10023 10020 10018 10015 10014 10011 10009 10007 10005 10002 10000 9999 9997 9995 9993 9991 9989 9988 9986 9985 9984 9982 9980 9979 9977 9976 9975 9974 9973 9972 9971 9970 9970 9969 9969 9968 9967 9967 9966 9965 9965 9965 9965 9964 9964
10194 10187 10180 10174 10167 10161 10155 10150 10144 10139 10133 10128 10123 10118 10113 10109 10104 10100 10095 10091 10087 10084 10080 10077 10073 10070 10066 10063 10059 10056 10053 10050 10047 10044 10041 10038 10035 10032 10029 10027 10024 10021 10019 10016 10014 10012 10009 10007 10005 10003 10000 9999 9997 9995 9993 9991 9989 9987 9986 9984 9983 9981 9980 9979 9977 9975 9975 9974 9972 9971 9970 9970 9969 9968 9967 9967 9966 9966 9965 9965 9964 9964 9964 9964 9963 9963
10189 10182 10175 10169 10163 10157 10152 10146 10140 10135 10129 10124 10119 10115 10110 10105 10101 10097 10093 10089 10085 10081 10077 10074 10070 10067 10064 10060 10057 10054 10051 10048 10045 10042 10039 10036 10034 10030 10027 10025 10022 10019 10017 10014 10012 10009 10007 10005 10003 10001 9999 9997 9995 9993 9991 9989 9987 9986 9984 9982 9981 9979 9978 9977 9975 9974 9973 9972 9970 9970 9969 9968 9967 9967 9966 9965 9965 9965 9964 9964 9963 9963 9962 9962 9962 9962
10185 10178 10172 10165 10159 10154 10148 10142 10137 10132 10126 10122 10117 10112 10107 10103 10099 10094 10090 10087 10083 10079 10075 10072 10069 10065 10062 10059 10055 10052 10049 10046 10043 10040 10037 10034 10032 10029 10025 10023 10020 10018 10015 10012 10010 10008 10005 10003 10001 9999 9997 9995 9994 9991 9989 9988 9986 9984 9982 9981 9979 9978 9976 9975 9974 9972 9971 9970 9969 9969 9968 9967 9966 9965 9965 9964 9964 9964 9963 9962 9962 9962 9961 9961 9960 9960
10181 10175 10168 10162 10156 10150 10144 10139 10134 10129 10124 10119 10114 10109 10105 10100 10096 10092 10088 10084 10080 10077 10074 10070 10067 10063 10060 10057 10054 10050 10047 10044 10042 10039 10035 10033 10030 10027 10024 10021 10019 10016 10014 10011 10009 10006 10004 10002 9999 9997 9995 9994 9992 9990 9988 9986 9984 9983 9981 9979 9978 9976 9975 9974 9972 9971 9970 9969 9968 9967 9967 9966 9965 9965 9964 9964 9963 9962 9962 9962 9961 9960 9960 9960 9959 9959
10177 10171 10165 10159 10152 10147 10141 10136 10130 10125 10121 10116 10111 10107 10102 10098 10094 10090 10086 10082 10079 10075 10072 10068 10065 10062 10058 10055 10052 10049 10045 10042 10040 10037 10034 10031 10028 10025 10022 10020 10017 10015 10012 10010 10007 10005 10002 10000 9998 9996 9994 9992 9990 9989 9987 9985 9983 9981 9980 9978 9977 9975 9974 9972 9971 9970 9969 9968 9967 9966 9965 9965 9964 9964 9963 9963 9962 9962 9961 9960 9960 9960 9959 9959 9959 9958
10174 10167 10161 10155 10149 10144 10138 10133 10128 10123 10118 10114 10109 10104 10100 10096 10092 10088 10084 10080 10077 10074 10070 10067 10063 10060 10057 10053 10050 10047 10044 10041 10038 10035 10032 10029 10027 10024 10021 10019 10016 10014 10011 10009 10006 10004 10001 9999 9997 9995 9993 9991 9989 9987 9985 9984 9982 9980 9979 9977 9975 9974 9973 9972 9970 9969 9968 9967 9966 9965 9965 9964 9964 9963 9962 9962 9961 9960 9960 9960 9959 9959 9958 9958 9957 9957